Race Results for
Snowshoe NCS #2
Snowshoe, WV
(Event Information)
This is a non-competitive event
Downhill on 06/14/2003

Note: Ranking points are NOT upgrade points. An explanation of ranking points can be found here.


Men - Junior - JR - 1-10

 Place NameCity, StateTime USAC #BibTeam
1 JOSHUA COIT   22:41.76  1055 

Men - Junior - JR - 11-12

 Place NameCity, StateTime USAC #BibTeam
1 Conor Lockwood   Charlotte, VT08:41.70 192120  786 DR OUTDOOR
2 KURT TOBIAS   09:52.40  855 BIKE LANE
3 JAKE DONMEYER   15:25.19  1112 
DNF KURT TOBIAS   DNF  857 BIKE LANE

Men - Junior - JR - 13-14

 Place NameCity, StateTime USAC #BibTeam
1 TIM PRICE   05:31.87  915 
2 Christopher Jarcy   Frederick, MD05:54.21 190327  488 RACERS EDG
3 Jordan Richard   Midlothian, VA06:09.71 194189  767 
4 SEAN EDWARDS   06:29.09  408 
5 BURKE SAUNDERS   06:53.17  756 
6 Matthew Sinclair   Boulder, CO07:52.61 193870  696 THE FIX
7 DEAN JANKA   08:33.79  673 
8 MATT SANDERS   08:45.69  845 BIKE LANE
9 Ethan Fletcher   Linwood, NC11:52.41 169504  1145 SADLER BIK
10 RYAN MITCHELL   12:18.30  1106 
11 JUSTIN JENNY   12:23.19  831 BLISS RACI

Men - Junior - JR - 15-16

 Place NameCity, StateTime USAC #BibTeam
1 Daniel Hultgen   Santa Barbara, CA05:39.74 184908  466 MAXXIS DRA
2 Jarod Minghini   Snowshoe, WV06:02.59 193188  807 
3 Travis Bond   Chattanooga, TN06:04.15 194663  971 SOCK CREEK
4 NICK FOUST   Basking Ridge, NJ06:09.23 190341  891 TEAM HCOR.
5 MICKEY PRICE   06:19.80  917 VICS TREE
6 ANDREW GODWIN   06:50.12  1107 
7 Morgan Ryan   Catonsville, MD06:53.76 173474  455 RACERS EDG
8 Peter Botton   Lynchburg, VA07:22.72 189802  458 TEAM SPEED
9 RYAN CROOKS   07:37.57  1020 YOUTH CYCL
10 CASEY BAKER   08:38.72  1022 
DNF David Garcia   San Antonio, TXDNF 194268  1005 BICYCLE HE
DNF TRAVIS MANN-GOW   DNF  835 

Men - Junior - JR - 17-18

 Place NameCity, StateTime USAC #BibTeam
1 AUSTIN DONER   05:40.91  1131 
2 Bryan Kieffer   Puyallup, WA06:15.39 100849  623 FOES AZONI
3 ZACH SEIBOLD   06:16.82  1116 WHEEL LIFE
4 CHARLIE MOONEY   06:41.12  991 
5 JACKSON COX   07:01.93  806 
DNF Sam Silvey   Chattanooga, TNDNF 180012  978 SUCK CREEK

Men - Junior - JR - JuniorX

 Place NameCity, StateTime USAC #BibTeam
2 Kyle (Kayodic) Strait   Costa Mesa, CA05:35.81 143063  654 REDBULL/OA
3 Duncan Riffle   Santa Barbara, CA05:40.85 146687  842 CHUMBA WUM
4 Kyle Adams   Coeur D Alene, ID06:18.17 181185  425 ROMIC/SPY/
5 Cory Gustafson   Vista, CA06:19.35 162777  1299 FOES-AZONI
6 Garrick Anderson   Poway, CA06:22.68 182965  765 123BIKES.C
7 Tim Kachel   Aptos, CA06:26.24 180848  662 PLANET X
8 Cameron Zink   Reno, NV06:33.61 112265  930 OAKLEY/SUP
9 Peter Brennen   Berkeley, CA06:35.22 169936  405 RPM/YETI
10 JORDAN GIESBRECHT   06:37.36  928 AZONIC/DOU
11 Sean McClendon   Pine Valley, CA06:39.10 159018  924 123BIKES.C
12 Avery Buch   Freeport, ME06:46.30 161748  571 EVIL BIKES
13 Tyler Jorgenson   Tucson, AZ06:46.48 128039  704 SWIFT/MTBX
14 DEXTER LEVANDOSKI   06:47.20  856 RPM/YETI
15 Dom DeMaio   E Brunswick, NJ06:47.27 188663  413 OAKLEY/HCO
16 Marc Sullivan   Middle Grove, NY06:56.34 195067  717 ELEVATE/SU
17 Tom Reynolds   Hampton, NJ06:57.79 159376  544 RPM/YETI
18 Jade Jenny   Hinesburg, VT07:15.35 150562  836 BLISS RACI
19 Daniel Umland   Bakersfield, CA07:30.43 146235  776 ODI SOUTHR
20 Thomas Aaby   Monument, CO07:31.55 184031  657 BALANCED R
21 Ryan Hawks   S Burlington, VT07:31.64 117698  1170 BLISS RACI
22 CHESTER BRANDT   San Diego, CA07:32.42 199364  519 HCOR.NET
23 Nick Plagman   Denver, CO07:33.48 191126  858 RPM/YETI
24 Seth Harney   Amarillo, TX07:46.07 175609  816 BCD.BCD.CO
25 Billy DeLaCroix   Boulder, CO08:05.32 181334  872 RPM/YETI
26 Ryan Mulder   Walker, MI08:15.45 191207  728 HIGH GEAR
27 Cody Warren   Alpine, CA08:18.79 160802  409 HARO-LEE D
28 Ben Haulenbeek   Westford, VT08:43.68 150666  838 
29 Jason Corriveau   Manchester, NH08:50.43 192122  513 TEAM DROP
30 JONATHAN STECKO   11:20.53  683 
31 Phil Patrick   Meredith, NH11:23.23 198299  560 TEAM DROP
32 SPENCER LAUGHMAN   15:32.55  750 GETTYSBURG
DNF Zach Weakley   Delanson, NYDNF 184231  846 GRAVITY WA
DNF Cole Bangert   Twin Lakes, CODNF 177344  797 COLORADO B
DNF Patrick Carey   Keene, NYDNF 171839  929 COYOTE HIL
DNF Jonathan Lutke   Highland Lakes, NJDNF 171270  824 SUSSEX BIK
DNF Jordan Carr   Gunnison, CODNF 170822  779 CLI
DNF Michael Ontiveros   Boulder, CODNF 170545  799 THE FIX BI
DNF Anthony Cuomo   El Cajon, CADNF 157172  751 ADIDAS/TRO
DNF Scot Purvis   Litchfield Park, AZDNF 141103  543 

Men - EX - Senior - 19-24

 Place NameCity, StateTime USAC #BibTeam
1 Jess Pedersen   Telluride , CO05:53.33 186232  890 POISON SPI
2 Matt Henderson   High Bridge, NJ06:20.26 141944  850 RACERS EDG
3 Matthew Day   Charlottesville, VA06:26.86 112606  864 WINTERGREE
4 HEIKKI HALL   06:32.94  563 
5 Michael Valach   Snowshoe, WV06:33.50 82951  810 SUN/ RINGL
6 Paul Phillips   Whitesboro, NY06:39.39 135320  886 INTENSE/AZ
7 Eric Fisk   Galway, NY06:54.39 165928  781 ELEVATE CY
8 PAUL KARLE   06:56.24  867 WEBER SPOR
9 Greg Smith   Gainesville, FL06:59.25 145316  862 TREK
10 Scott Lowry   Mount Sterling, OH07:06.20 155327  549 O.D. RACIN
11 Chris Carleton   Portland, ME07:11.82 149927  564 EVIL BIKES
12 Jason Maguire   Chalfont, PA07:20.21 192160  643 
13 PATRYK D0LEWICZ   07:26.19  556 TEAM DROP
14 WILL OVERBAUGH   07:31.42  594 ROAD 34
15 ZACHARY GRIFFITH   Portland, OR07:37.21 192407  888 RPM/YETI
16 Keith Hengen   Concord, NH07:50.89 174034  568 TEAM DROP
17 Colin Lindberg   Hillsborough, NJ07:51.19 83782  656 OAKLEY/HCO
18 Greg Vogt   Boulder, CO07:58.95 161706  725 TLD/ THE F
19 Tim Baldassare   Gilmanton, NH08:04.59 175236  1166 MICHELIN
20 Dan Watts   Grove City, OH08:29.70 147675  400 AZONIC/OD
21 Cyrus House   Burlington, VT08:41.82 184799  688 TRANSCENED
22 DAVID HAAS   08:46.66  1062 BACK BAY B
23 MIGUEL RAMOS   09:20.47  610 TEAM AK
24 Joseph Sanders   09:20.57 171145  860 THE BIKE L
25 Joshua Gittleman   Roslyn, NY09:34.44 189028  627 
26 PETER WICK   Eugene, OR09:36.06 16362  1064 BACK BAY B
27 Andrew (Drew) Gibson   Frisco, CO11:56.31 159723  881 CONFLICT R
28 JEFF HOLLOWELL   12:39.50  910 
29 Jesse Kieffer   Puyallup, WA13:31.66 100850  617 FOES AZONI
DNF STEVE SELLERS   DNF  1119 
DNF Jay Seiter   S Hamilton, MADNF 192067  672 EARTHMOVER
DNF CHRISTIAN REYES   DNF  782 
DNF Justin Raynes   Bozeman, MTDNF 197456  871 JRUS/BIKES
DNF CHRISTOPHER JR ACHORN   DNF  802 SUN RINGLE
DNF Coakley Jopling   Lyme, CTDNF 180959  646 GRAVITY WA
DNF Nate Riffle   Ventura, CADNF 164883  600 FINISH LIN
DNF Frank Loccisano   Colorado Springs, CODNF 163027  879 
DNF Paul Koslovsky   Huntington, NYDNF 136379  677 TRANSCEND/
DNF David Smith   Ketchum, IDDNF 127305  1080 
DNF Matt Weis   Medford, ORDNF 112482  894 

Men - EX - Senior - 25-29

 Place NameCity, StateTime USAC #BibTeam
1 Jason Fitterer   Hershey, PA06:34.86 126796  921 DOWNHILL F
2 Jason Schippers   Highlands Ranch, CO06:37.41 128580  876 BIKE SPORT
3 Eric Fleming   New York, NY06:51.67 135799  922 FINISH LIN
4 Fred Heinly   Boyertown, PA06:53.81 174028  828 READING RA
5 CHRIS McINTOSH   06:55.41  1069 
6 ERIC RECKER   07:06.87  1151 RACERS EDG
7 Jason Beckley   Clifton Heights, PA07:31.47 3122  811 ATHENS BIC
8 Matt Griffin   Greenville, SC07:48.30 148978  926 SO EAST IN
9 Chad MacWhinney   Neptune, NJ07:49.40 120648  588 DIRTWORKS/
10 Gary Bethea   Palm Coast, FL08:13.16 149339  817 
11 Geoff Flegal   Manchester, NH08:20.83 185262  559 TEAM DROP
12 Adam Andrade   Seattle, WA08:25.41 155366  602 NBS RACING
13 Jeffrey Galego   Utica, MI08:29.16 197794  936 HIGH GEAR
14 Michael Tobler   Freeport, ME08:49.60 177694  572 EVIL BIKES
15 Jeremy Raney   Campobello, SC08:50.31 102866  830 SEI RACING
16 MATT CONTO   Newark, NJ08:57.13 164520  832 EPX/MAXXIS
17 JON ARMOR   08:59.49  898 ANSWER
18 THAN WHITE   10:30.11  975 EAST COAST
19 Jonathan Frucci   West Greenwich, RI10:42.17 130247  434 HIGH GEAR
20 Kevin Addair   Glade Spring, VA10:49.65 171157  820 TEAM TDR
21 Jason Bond   Wierton, WV12:00.28 175935  650 BONDZEYE.C
22 Philip Vega   Boise, ID13:36.36 163449  1123 JOYRIDE
23 Charles Crabtree   Indianapolis, IN15:26.26 153263  834 
DNF Jeffrey Newton   Banner Elk, NCDNF 164715  815 
DNF Ben Ramsbottom   Knoxville, TNDNF 154914  512 HARPERS BI
DNF Adam Ward   Fairfax, VADNF 149595  432 SUBURBAN C
DNF PHILIP BICE   Riverton, NJDNF 173930  983 
DNF Nick Lyons   Scottsville, KYDNF 135817  719 PRAISE KIL
DNF James Norris   Winchester, MADNF 94951  934 
DNF Todd Burnett   Abingdon, MDDNF 93178  1109 RACERS EDG
DNF JASON BIXBY   DNF  970 CHRISTINI
DNF Brad Stone   Snowshoe, WVDNF 194203  892 FUEL CLOTH
DNF Andrew St Clair   Medford, MADNF 192154  744 MIAXXIS/LO

Men - EX - Master - 30-34

 Place NameCity, StateTime USAC #BibTeam
2 John Milby   Thorndale, PA06:26.68 180520  435 PRIVATEER
3 Steve VanPelt   Lake Oswego, OR06:28.72 176525  772 DIRT WORKS
4 STEPHEN GRAY   06:35.19  620 
5 Jerry (Butch) Greene   Fletcher, NC06:45.03 97780  566 SOUTHEAST
6 Mike Hartlove   Freeland, MD06:50.99 15291  1111 RACERS EDG
7 Anthony Wroblewski   Canastota, NY06:53.18 154159  614 ADVANCE CY
8 Daniel Dickan   Utica, NY06:59.67 138049  848 ADVANCE CY
9 Tom Orsini   Watertown, CT07:00.53 192183  565 GRAVITY WA
10 CHRISTIAAN BOURDREZ   07:06.61  904 REDHOOK BE
11 LARRY GREENE   07:17.35  814 
12 Lebon Ballesteros   Honolulu, HI07:18.29 150943  808 MAXXIS/AZO
13 Howard Boswell   Brookline, MA07:25.59 164489  868 MAXXIS
15 Justin Alvey   Layton, UT07:30.63 81806  462 GORIDE.COM
16 Randy Arnold   Rocky Mount, NC07:31.09 176773  778 
17 Mike Gee   Trabuco Canyon, CA07:52.83 165741  874 ROMIC/INTE
18 CHRISTOPHER BRAYMAN   07:57.83  800 ERICS CYCL
19 JAY SWARTZ   Perkasie, PA08:13.63 160378  530 MT. PERK C
20 Shawnee McGovern   Boulder, CO08:17.21 83560  794 THE FIX/LE
21 Aaron Potter   Phoenix, AZ08:18.03 127217  943 AZONIC/KEN
22 John Ronca   Bethlehem, PA08:23.23 181956  748 ECDIRT.COM
23 Rodney James   Lennox, CA08:24.00 168437  467 TEAM ECLIP
24 John Pentecost   Golden, CO08:35.45 27673  569 E13/EVILBI
25 Steven Kaufman   Wake Forest, NC08:47.59 151749  441 RAPID DESC
26 Kalan Bunch   Snowshoe, WV08:48.98 121504  476 FUEL MOTOR
27 Terry Hungerford   Lancaster, PA08:59.99 189600  1164 
28 Aaron Gilliland   Loveland, CO09:00.76 100256  761 
29 Chris Kring   Zeeland, MI09:08.42 149358  822 HIGHGEARRA
30 Curtis Warren   Madison Hts, MI09:29.98 179992  908 LANDSLIDE
31 Emmanuel Pons   Salt Lake City, UT09:59.09 181297  979 
32 ALEJANDRO CORTES   10:43.06  785 MATS BIKE
33 Sean Tarricone   Belmar, NJ11:01.83 173561  480 
34 Chad Crawford   Rome, PA11:38.60 106239  697 CHRISTINI
35 Todd Wilson   Southwick, MA13:10.15 90130  1006 GRAVITY WA
36 Corey Tate   Concord, NC13:42.14 190975  923 BIKE LINE
DNF Michael Carron   Spring Valley, NYDNF 185461  1102 661
DNF Matt Palmisano   Colorado Springs, CODNF 168881  963 
DNF Lee McCormack   Boulder, CODNF 104040  981 TRAIL HEAD
DNF Walter McGuire   Baltimore, MDDNF 194145  896 RACERS EDG
DNF THOMAS ADKINS   DNF  567 TEAM DROP
DNF Christopher Gil   Phoenix, AZDNF 64669  766 TEAM SWIFT
DNF Ian Furqueron   Croydon, PADNF 12570  445 TEAM XXL/G

Men - EX - Master - 35-39

 Place NameCity, StateTime USAC #BibTeam
1 John Galli   Cazenovia, NY06:26.21 12696  884 MAXXIS/ADV
2 Chuck Valenzuela   Littlerock, CA06:59.31 156982  878 KHS
3 Michael Kulp   Vernon, NJ07:14.45 133293  547 DIRT WORKS
4 Damon Kirchmeier   Farmington, UT07:17.22 19248  552 YETI/TRUVA
5 JOE BELL   07:32.24  598 PEDAL POWE
6 Jonathan Sherman   Somerset, NJ08:00.69 190661  809 HCOR.NET
7 Thomas Finnegan   Mahwah, NJ08:06.09 184784  587 SPY/MRP/MA
8 Jason Bredbury   Boston, MA08:07.05 178128  497 PLANET X
9 Charlie Kocornik   Daly City, CA08:11.72 147165  1008 VISION SF
10 Darin Delio   Lahaina, HI08:15.77 189885  840 NO BRAKES
11 Lawrence Klein   Marietta, GA08:18.43 193887  729 FLK RACING
12 Paul Adams   Hillsboro, NH08:47.15 197251  557 TEAM DROP
13 Anthony Howard   Portland, OR09:13.95 132560  775 T AND E CY
14 Craig Jeffers   Plainfield, IL09:58.91 138405  882 PEDAL POWE
15 John Malinowski   East Pointe, MI10:41.75 184235  932 HIGH GEAR
16 Daniel McDonald   Manchester, NH10:48.32 184707  586 TEAM DROP
DNS Joel Leyva   Los Gatos, CA 168323  429 SANTA CRUZ
DNF Scott Lewis   Honolulu, HIDNF 163800  469 
DNF Scott Johnson   Durham, NCDNF 121482  449 TROLL RACI
DNF Donovan Carroll   Sugar Grove, NCDNF 98611  813 BOONE BIKE
DNF Fred Schuldt   Asheville, NCDNF 82761  651 PRO BIKES

Men - EX - Master - 40-44

 Place NameCity, StateTime USAC #BibTeam
1 RICKY WILES   07:28.83  821 FAT CITY C
2 CHRIS WARREN   07:59.55  844 BONEBREAKER
3 William Kieffer   Puyallup, WA08:22.09 19075  624 FOES AZONI
4 Ronald Sheaffer   Palmyra, PA09:26.73 91343  741 FINISH LIN
5 Don Lilly   Arlington, VA10:17.19 165041  880 
6 Wayne Tanner   Hollywood, FL10:46.32 86400  583 MTN CYCLE/
7 Jeffrey Adkins   Taunton, MA11:12.21 92504  558 TEAM DROP
8 HENRY PRANTL   15:37.51  663 AZONIC
DNF John Pallotto   Cheshire, CTDNF 27111  870 GRAVITY WA

Men - EX - Master - 45-49

 Place NameCity, StateTime USAC #BibTeam
1 Mark Umland   San Bernardino, CA07:41.09 153031  705 ODI SOUTHR
2 Joe Bridges   Knoxville, TN09:07.82 4820  410 
3 Joel Creed   Franklin, IN11:36.87 146083  733 GILLIS FIT
DNF Gerardo Florez   Ponte Vedra, FLDNF 144584  659 PAIN RELIE

Men - EX - Master - 50-54

 Place NameCity, StateTime USAC #BibTeam
1 Joel Creed   Franklin, IN07:36.66 146083  505 GILLIS FIT
2 Steve Lutke   Highland Lakes, NJ08:25.34 177696  1031 SUSSEX BIK
DNF Gerardo Florez   Ponte Vedra, FLDNF 144584  660 PAIN RELIE

Men - EX - Master - 55-59

 Place NameCity, StateTime USAC #BibTeam
1 Charles Libolt   Riverside, CA07:37.52 117814  967 BARB

Men - EX - Master - 60-64

 Place NameCity, StateTime USAC #BibTeam
DNF Gerardo Florez   Ponte Vedra, FLDNF 144584  561 PAIN RELIE

Men - SP - Senior - 19-24

 Place NameCity, StateTime USAC #BibTeam
1 BEN BUDD   05:22.81  796 MOLE HILL
2 KLINTON WOOD   05:50.18  925 
3 Matthew Jaracz   Andover, MA05:54.71 132081  901 THC/OTW
4 Chris Franke   Kutztown, PA05:59.21 124049  562 MT PERK CY
5 STEPHEN CROWLEY   05:59.71  839 BLAZIN BRO
6 DAN BROOME-RAINES   06:04.86  593 
7 BRAD DESKIRS   06:50.03  1037 
8 Luke Grieve   Chantianooga, TN06:55.24 170156  1152 SUCK CREEK
9 BRENDAN NUTT   06:56.52  1118 JOE WALSH
10 BILL BOYLE   07:24.97  789 PEDAL POWE

Men - SP - Senior - 25-29

 Place NameCity, StateTime USAC #BibTeam
1 ADRIAN SPIKER   05:28.12  1163 
2 Kevin Miller   Hanover, PA05:36.41 194655  1001 
3 Lander Junqueira   Newark, NJ05:50.27 194354  875 SVB RACING
4 ROLAND DUFRESNE   05:51.03  664 FAT BLACK
5 Jason Anderson   El Cajon, CA05:54.97 117805  805 123 BIKES
6 ANDREW MACQUEEN   05:56.30  1155 
7 Andrew Crumpler   Pittsburgh, PA05:57.63 214152  635 ROCKET/ GA
8 DAVID KALT   06:05.54  1032 AZONIC
9 Christopher Sharp   Fairfield, CT06:05.97 193919  897 FULLSNAP R
10 Dennis Dukeman   Akron, OH06:08.71 189147  452 OD RACING/
11 Rodney Williams   Johnson City, TN06:19.14 194795  803 
12 JASON BIXBY   06:26.74  970 
13 LLOYD BARNETT   Oklahoma City, OK06:38.82 71632  538 
14 BILL KNOTH   07:04.53  1146 
15 Quinn Onorio   Indianapolis, IN07:26.86 175966  518 
16 GREGORY HOYER   07:50.31  707 
DNF ANDREW WEAGLE   DNF  1057 

Men - SP - Master - 30-34

 Place NameCity, StateTime USAC #BibTeam
1 Mark Wallace   Falls Church, VA05:36.73 194166  914 EASTCOASTE
2 DARREN SAVAGE   05:37.61  414 RACERS EDG
3 Michael Howell   Richmond, VA05:39.82 182945  1038 
4 DAVID EISENBEIL   05:44.37  424 RACERS EDG
5 Philip Crowley   Claremont, NH05:49.77 192155  837 BLAZIN BRO
6 Steven Battaglini   Ballston Spa, NY05:57.89 181070  461 ELEVATE CY
7 Edward Schwarz   Casselberry, FL06:07.56 154149  793 
8 Paul LaBarbera   Bridgewater, NJ06:18.42 188881  758 PLANET BIK
9 DENNY BLALOCK   06:21.85  976 
10 STEPHEN HERSHBERGER   06:26.99  1150 THOMAS SUB
11 WAYNE WADDELL   06:34.10  1039 
12 PATRICK WALSH   06:36.50  1125 GREEN MOUN
13 MARK BAUTISTA   06:37.50  859 KUPAL
14 Chris Arnold   Johnson City, TN06:40.52 185608  804 MAXXIS/SPY
15 Brian Porzel   Denver, CO06:43.46 160076  1000 KING POOZ
16 TAEO HAAS   06:46.07  1094 
17 James Rosensteel   Morrisville, NC06:52.43 93593  585 TEAM DROP
18 DANTE BERGAMASCO   06:53.75  453 
19 JEREMY NEVINS   06:54.79  1090 
20 WAYNE HUTTON   06:59.18  790 PEDAL POWE
21 CLINT TERRILL   07:12.57  1104 ROWLETTS B
22 DENNIS JENSEN   07:31.40  863 
23 JASON WILLIAMS   07:46.70  1105 ROWLETTS B
24 DAVID GODFREY   08:04.81  1153 
25 RICHARD REDMAN   09:39.99  974 
DNF Robert Velasquez   Herndon, VADNF 127552  1141 A-1 CYCLIN
DNF RICH WILSON   DNF  877 TEAM XXL
DNF DANIEL SNYDER   DNF  1156 BLUE BIKE
DNF DAVID BUTTERMORE   DNF  402 

Men - SP - Master - 35-39

 Place NameCity, StateTime USAC #BibTeam
1 Eric Charles   York, PA05:37.03 131195  647 RACERSEDGE
2 Bill Grabowski   Fletcher, NC05:38.22 132141  1113 
3 BRET BUSBY   05:42.82  655 POWERSHACK
4 GUY GRIMSLEY   05:57.00  997 
5 MATTHEW GADEA FRANCO   05:58.44  784 MATTS BIKE
7 David Jensen   Queen Creek, AZ06:02.62 184072  827 NO BRAKES
8 BRYAN REPP   06:07.77  913 HARRELLS B
9 DEAN JOHNS   06:09.16  1011 HIGHGEAR/R
10 Scott Zelinsky   Woodbridge, VA06:10.44 194161  403 
11 SCOTT LEWIS   06:13.51  469 
12 William Reeves   Wake Forest, NC06:15.88 183898  481 TROLL RACI
13 Stephen Ryan   Springfield, VA06:16.76 154448  630 TEAM XXL
14 JP LE BLANC   06:28.17  977 GUYS BIKE
15 Michael Cain   Thornwood, NY06:31.15 120729  440 TEAM XXL/M
16 DONALD REDMOND   Grand Rapids, MI06:31.17 17282  823 
17 Mike Macaulay   Whitmore Lake, MI06:33.58 199940  1143 
18 BERNIE JULIAN   06:59.20  998 
19 Alan Sparks   Elizabethton, TN07:06.71 191107  532 RINGLE/661
20 John Graichen   Nicholasville, KY07:24.51 145168  494 BIKEHELL
21 Donald Butler   Charlotte, NC07:38.84 105985  412 BIKESOURCE
22 William Stevens   Grand Rapids, MI07:42.19 197793  470 HIGH GEAR
DNF Tom Platz   Ottsville, PADNF 191794  515 MT PERK CY

Men - SP - Master - 40-49

 Place NameCity, StateTime USAC #BibTeam
1 Michael Dart   Richmond, VA05:56.18 146346  795 
2 MARC GELINEAU   06:20.78  1114 
3 SETH DAWSON   Woodstock, VA06:23.08 89280  833 NO BRAKES
4 Edward Jarcy   Frederick, MD06:35.98 190320  493 RACERS EDG
5 CARTER STICKNEY   07:03.02  628 TROLL RACI
6 Mark Richard   Midlothian, VA09:09.47 142939  755 
DNF PHILIP DUNCAN   DNF  484 SNOWSHOE M
DNF Michael McGown   Springfield, VADNF 174052  861 

Men - BG - Senior - 19-24

 Place NameCity, StateTime USAC #BibTeam
1 PHILLIP CZULOWSKI   05:55.11  889 
2 CARLOS RODRIGUEZ BARRIOS   06:02.80  783 MATS BIKE
3 Matt Rupert   Pittsburgh, PA06:11.58 136586  825 RED BULL/O
4 JEREMY MARX   06:59.79  504 
5 SCOTT BRUCE   08:33.65  955 GATO CYCLE
6 Ryan Kalivretenos   Durango, CO10:19.69 170243  520 BIG DADDY
DNF DANIEL OWEN   DNF  829 

Men - BG - Senior - 25-29

 Place NameCity, StateTime USAC #BibTeam
1 GONZALO ELGUERA   05:54.60  968 DH PERU
2 RJ Kraus   Carlsbad, CA05:58.25 198488  1115 SPONSORHOU
3 JOSHUA STANDISH   06:45.48  1117 
4 DAVID ELLIS   06:48.93  1140 
5 BILLY DOYLE   06:54.04  980 
6 PETER STOCHLINSKI   10:50.26  644 
DNF SHAWN MALEC   DNF  524 
DNF ISAIAH PADGETT   DNF  780 

Men - BG - Master - 30-34

 Place NameCity, StateTime USAC #BibTeam
1 Jon Safford   Killington, VT05:52.42 174596  1103 ADVANCED P
2 COLIN JEVENS   06:15.25  1098 
3 Chester Gray   Mc Lean, VA07:25.09 194675  666 RACERS EDG
4 DAVID CRAIG   07:30.71  539 

Men - BG - Master - 35-39

 Place NameCity, StateTime USAC #BibTeam
1 Raymond Petro   N Ridgeviile, OH06:15.41 155620  516 DALES BIKE
2 Al Gildner   Bethlehem, PA07:18.44 188250  621 AZONIC/BRA
3 Michael Thomas   Johnson City, TN09:05.51 180659  675 MT SPORTS
4 JAMES WEST   09:56.58  1148 

Men - BG - Master - 40-49

 Place NameCity, StateTime USAC #BibTeam
1 AARON GILMAN   06:09.82  1108 PEDAL SPOK
2 Marty Thacker   Leborn, KY06:46.63 174003  1073 
3 Christopher Holmes   Folsom, CA08:09.01 16595  1056 ROCKNASIUM
4 Bruce McCann   Loveland, OH11:47.46 127940  873 TEAM AMIGO
DNF Kevin Sreenan   Jacksonville, FLDNF 33710  407 

Men - BG - Master - 50-99

 Place NameCity, StateTime USAC #BibTeam
1 STEVE SMITH   20:21.07  1127 FAT TIRE C
DNF BOB BRUCE   DNF  953 SCHOLLS BI
DNF THOMAS BRADLEY   DNF  472 BRADLEY ES

Women - Junior - JR - JuniorX

 Place NameCity, StateTime USAC #BibTeam
1 Jenessa Cornelison   Folsom, CA14:23.83 189641  887 KARPIEL/WT

Women - EX - Senior - 19-24

 Place NameCity, StateTime USAC #BibTeam
1 Carmen Marin   Glendale, CA11:38.55 150311  826 AZONIC/ONE
2 Samantha Allen   Redford, MI13:27.10 199938  866 HIGH GEAR
DNF Sarah Thomson   Mesa, AZDNF 193186  798 NO BRAKES

Women - EX - Senior - 25-29

 Place NameCity, StateTime USAC #BibTeam
1 Alexis Wruble   Medford, MA10:47.17 201279  902 CYCLELOFT
2 Rebekah Gibson   Sacramento, CA14:52.39 156288  703 TEAM PEGGY
3 Allison Sigler   Lowell, MA15:13.29 182761  849 EVIBIKE/E1

Women - EX - Master - 30-34

 Place NameCity, StateTime USAC #BibTeam
1 Chelsea Redwood   Concord, NH11:11.18 187886  854 WELCOME TO
2 LISA PRADELL   11:18.23  900 BICYCLE LO
3 Lisa Reinhard   Phoenix, AZ12:37.84 157921  945 TEAM OXYGE
4 Lisa Ronca   Bethlehem, PA12:41.24 181957  749 ECDIRT
5 Kimberly Tanner   Hollywood, FL12:42.43 86401  577 MTN CYCLE/

Women - EX - Master - 35-39

 Place NameCity, StateTime USAC #BibTeam
1 Denise Wardwell   Boise, ID13:18.65 169460  1121 JOYRIDE

Women - EX - Master - 40-44

 Place NameCity, StateTime USAC #BibTeam
1 Theresa Seeberg   Salt Lake City, UT07:24.81 183006  1072 BROOKLYN M
2 SHARI HYMES   09:46.23  451 HAMPTON VE
3 Tammy Kaufman   Wake Forest, NC16:00.10 154053  448 RAPID DESC

Women - EX - Master - 45-49

 Place NameCity, StateTime USAC #BibTeam
1 MARY SCHEERER   09:19.13  444 HAMPTON VE

Women - EX - Master - 50-54

 Place NameCity, StateTime USAC #BibTeam
1 Mary Purvis   Litchfield Park, AZ15:17.37 173415  537 

Women - SP - Senior - 19-29

 Place NameCity, StateTime USAC #BibTeam
1 HILLARY HARRISON   08:01.94  982 REDHOOK BE
2 Kate Riedell   Oakland, CA08:57.87 188596  508 NEBC/CYCLE

Women - SP - Master - 30-39

 Place NameCity, StateTime USAC #BibTeam
1 THERESA RYAN   Middle Village, NY10:06.96 164705  640 TEAM XXL

Women - BG - Master - 30-39

 Place NameCity, StateTime USAC #BibTeam
1 KRISTAN ANDERS   14:13.72  1158 

Women - BG - Master - 40-99

 Place NameCity, StateTime USAC #BibTeam
1 VICKI KOCH   07:06.64  692 TEAM CMI
2 JULIE COWELL   08:49.26  603 SEA LEVEL

Report missing or incorrect license numbers

Volkswagen
Sierra NevadaCUOREOSMOUSACDFShimanoBonk BreakerSpy
UCI USA Cycling is the official governing body for all disciplines of competitive cycling in the United States. The 501c3, membership-based organization aims both to achieve sustained success in international cycling competition and to grow competitive cycling in America while delivering an exceptional customer experience.
View Children's Online Privacy Protection Policy
US Olympic Committee